Regional Weather Roundup
Issued by NWS Goodland, KS

Home | Current Version | Previous Version | Text Only | Print | Product List | Glossary Off
Versions: 1 2 3 4 5 6 7 8 9 10 11 12 13 14 15 16 17 18 19 20 21 22 23 24 25 26 27 28 29 30 31 32 33 34 35 36 37 38 39 40 41 42 43 44 45 46 47 48 49 50

000
ASUS43 KGLD 250508
RWRGLD

GOODLAND FORECAST AREA HOURLY WEATHER ROUNDUP
NATIONAL WEATHER SERVICE GOODLAND KS
1100 PM MDT SAT JUN 24 2017

...OFFICIAL OBSERVATIONS...

CITY           SKY/WX    TMP DP  RH WIND       PRES   REMARKS
GOODLAND KS    CLOUDY    60  49  66 E9        30.31S
HILL CITY KS   CLOUDY    64  52  64 NE6       30.30R
IMPERIAL NEB   CLEAR     54  46  74 E9        30.32R
MCCOOK NEB     PTCLDY    58  51  78 N5        30.30R
AKRON CO       CLOUDY    61  47  59 SE9       30.36R
BURLINGTON CO  CLOUDY    60  48  64 E12       30.32S
LIMON CO       CLOUDY    54  44  69 CALM      30.35S
$$

...UNOFFICIAL OBSERVATIONS...

CITY           SKY/WX    TMP DP  RH WIND       PRES   REMARKS
LENORA KS        N/A     60  32  34 MISG        N/A
NORTON KS      CLEAR     57  43  58 CALM      30.28R
SHARON SPRINGS   N/A     61  52  71 SE9         N/A
TRENTON NEB      N/A     58  32  37 CALM        N/A
KIT CARSON CO    N/A     60  48  64 CALM        N/A
YUMA CO        MOCLDY    59  50  72 SE5       30.34R
$$




USA.gov is the U.S. government's official web portal to all federal, state and local government web resources and services.